www.pogodaiklimat.ru

Погода и климат >> Архив погоды >> Россия >> Челябинская область >> Октябрьское


ПОГОДА в Октябрьском

  • Прогноз погоды в Октябрьском
  • Монитор погоды в Октябрьском

АРХИВ ПОГОДЫ в Октябрьском

Время (UTC), дата Ветер
(напр.,м/с)
 
Видим.   Явления Облачность Т
(С)
Тd
(С)
f
(%)
Тe
(С)
Тes
(С)
Комфортность P
(гПа)
Po
(гПа)
Тmin
(С)
Tmax
(С)
R
(мм)
R24
(мм)
S
(см)
03 17.08 штиль 0 10 км 9/0
[Cs]
+18.8 +13.2 70 +20 +23 1017.6 996.0 +11.5
06 17.08 СЗ 2 10 км 9/0
[Cs]
+25.1 +12.6 46 +27 +35 жарко 1017.7 996.6
09 17.08 СЗ 1 10 км 9/0
[Cs]
+27.6 +11.7 37 +29 +40 жарко 1017.0 996.1
12 17.08 СЗ 2 10 км 9/0
[Cs]
+28.8 +10.8 33 +29 +33 жарко 1016.6 995.8
15 17.08 В 1 10 км 9/0
[Cs]
+24.3 +14.4 54 +27 +27 жарко 1017.3 996.2 +29.1
18 17.08 штиль 0 10 км 9/0
[Ac As Cs]
+18.8 +14.2 75 +20 +20 1018.0 996.4
21 17.08 Ю 1 10 км 9/0
[Ac As Cs]
+18.2 +13.2 73 +20 +20 1018.4 996.8
00 18.08 В 1 10 км 9/0
[Ac trans]
+15.3 +12.6 84 +16 +16 1018.6 996.8
03 18.08 Ю 1 10 км 9/0
[Ac As Cs]
+20.0 +13.4 66 +23 +25 комфорт 1018.6 997.1 +14.6
09 18.08 СЗ 4 10 км 9/3 300 м
[Cu hum Cs]
+30.0 +12.2 33 +31 +35 жарко 1018.0 997.2
15 18.08 С 2 10 км 9/0
[Cs]
+25.6 +14.3 50 +28 +28 жарко 1019.6 998.5 +30.4
21 18.08 СВ 2 10 км 3/0
[Ac lent]
+17.3 +14.4 83 +18 +18 1022.0 1000.3
03 19.08 СВ 2 10 км 10/0
[Ac As]
+18.1 +16.2 89 +19 +20 1024.4 1002.7 +15.5
09 19.08 СВ 2 10 км 9/0
[Ac und]
+23.4 +14.7 58 +27 +31 душно 1024.8 1003.5
15 19.08 штиль 0 10 км 9/6 300 м
[Cb cap Ac cuf]
+23.2 +15.2 61 +27 +27 душно 1024.7 1003.3 +26.7
21 19.08 СВ 2 10 км 9/3 300 м
[Cu med, cong Ac cuf]
+19.5 +13.4 68 +22 +22 комфорт 1024.4 1002.8
03 20.08 Ю 2 10 км 10/8 300 м
[Frnb As trans]
+19.5 +13.9 70 +22 +22 комфорт 1023.9 1002.2 +17.1
09 20.08 Ю 2 10 км 10/9 300 м
[Frnb As trans]
+25.3 +13.9 49 +28 +28 жарко 1020.7 999.6
15 20.08 Ю 3 10 км 9/6 300 м
[Sc diur, vesp Ac cuf]
+20.7 +17.1 80 +25 +25 комфорт 1017.2 995.8 +26.5
21 20.08 З 2 10 км ясно +17.0 +14.1 83 +17 +17 1014.6 993.0
00 21.08 СВ 1 500 м туман ясно +16.3 +15.5 95 +17 +17 1013.9 992.3
03 21.08 СВ 4 10 км {туман} 10/0
[As op]
+16.7 +15.9 95 +16 +16 1014.5 992.9 +15.2
09 21.08 СВ 5
{10}
10 км 9/8 300 м
[Cu med, cong Ac cuf]
+20.1 +10.8 55 +21 +22 комфорт 1016.9 995.5
15 21.08 С 2 10 км 3/0
[Ac trans Cs]
+17.9 +8.0 52 +18 +18 1018.6 997.0 +22.8 0.0
21 21.08 С 3 10 км 9/0
[Ac trans]
+12.4 +10.0 85 +11 +11 1021.1 999.0
00 22.08 СЗ 2 4000 м дымка 9/0
[Cs]
+11.7 +9.8 88 +11 +11 1021.2 999.0
03 22.08 СЗ 3 4000 м дымка 6/0
[Ac As]
+12.3 +10.7 90 +11 +12 1021.6 999.4 +10.8
09 22.08 С 3 10 км 8/6 300 м
[Cu med, cong Cs]
+22.4 +8.7 42 +24 +27 комфорт 1020.0 998.6
15 22.08 СЗ 2 10 км 4/0
[Cs]
+19.0 +10.1 56 +20 +20 1020.6 999.0 +23.2
21 22.08 СЗ 2 10 км ясно +12.4 +9.9 85 +11 +11 1021.9 999.8
03 23.08 ЮЗ 1 10 км 4/0
[Cs]
+15.2 +9.7 70 +16 +18 1021.9 1000.0 +8.8
09 23.08 З 4 10 км 9/0
[Cs]
+26.6 +5.7 26 +26 +32 жарко 1018.8 997.7
15 23.08 З 2 10 км 4/0
[Cs]
+24.5 +7.2 33 +25 +25 комфорт 1016.5 995.4 +28.3
21 23.08 СЗ 3 10 км 4/0
[Ac trans]
+19.4 +12.6 65 +21 +21 комфорт 1017.6 996.1

 

Местоположение метеостанции Октябрьское (Челябинская область, Россия): широта 54.42 долгота 62.70 высота над уровнем моря 184 м.

В архиве по умолчанию представлена погода в Октябрьском за последнюю неделю. Архивные данные за месяц целиком и за предыдущие месяцы, начиная с января 2011 года, Вы можете получить, выбрав интересующий диапазон дат из раскрывающегося списка и нажав кнопку "Ввод!".


*Определитесь, кто Вы:
робот инопланетянин человек

Внимание! Время в таблицах - всемирное. Для получения местного времени необходимо прибавить поправку, которая равна 5 ч.

Смотрите также архив погоды в соседних городах и на ближайших метеорологических станциях:

Погода в Целинном (Курганская область, Россия) (63 км)
Погода в Троицке (Челябинская область, Россия) (80 км)
Погода в Карабалыке (Костанайская область, Казахстан) (81 км)
Погода в Южноуральске (Челябинская область, Россия) (87 км)
Погода в Шумихе (Курганская область, Россия) (98 км)
Погода в Михайловке (Костанайская область, Казахстан) (114 км)
Погода в Челябинске (Челябинская область, Россия) (121 км)
Погода в Куртамыше (Курганская область, Россия) (124 км)
Погода в Бродокалмаке (Челябинская область, Россия) (135 км)
Погода в Звериноголовском (Курганская область, Россия) (140 км)

Пояснения к столбцам:

Ветер - указаны скорость ветра в м/с - средняя за 10 мин, порывы в срок и между сроками (в фигурных скобках) и направление, откуда дует ветер: С - северный, СВ - северо-восточный, В - восточный, ЮВ - юго-восточный, Ю - южный, ЮЗ - юго-западный, З - западный, СЗ - северо-западный.
Видимость - горизонтальная дальность видимости в метрах или километрах. При видимости от 1 до 10 км при отсутствии осадков обычно наблюдается дымка, при ухудшении видимости до 1 км и менее - туман. В сухую погоду видимость может ухудшаться дымом, пылью или мглою.
Явления - указаны атмосферные явления, наблюдавшиеся в срок или в последний час перед сроком; фигурными скобками обозначены явления, наблюдавшиеся между сроками (за 1-3 часа до срока); квадратными скобками обозначены град или гололедные отложения с указанием их диаметра в мм.
Облачность - указаны через наклонную черту общая и нижняя облачность в баллах и высота нижней границы облаков в метрах; квадратными скобками обозначены формы облаков: Ci - перистые, Cs - перисто-слоистые, Cc - перисто-кучевые, Ac - высококучевые, As - высокослоистые, Sc - слоисто-кучевые, Ns - слоисто-дождевые, Cu - кучевые, Cb - кучево-дождевые. Подробнее классификацию облаков см. в Атласе облаков (PDF).
T - Температура воздуха - температура, измеренная на высоте 2 м над землей.
Td - Температура точки росы - температура, при понижении до которой содержащийся в воздухе водяной пар достигнет насыщения.
f - Относительная влажность воздуха - влажноcть воздуха, измеренная на высоте 2 м над землей.
Te - Эффективная температура - температура, которую ощущает одетый по сезону человек в тени. Характеристика душности погоды. При расчете учитывается влияние влажности воздуха и скорости ветра на теплоощущения человека.
Tes - Эффективная температура на солнце - температура, которую ощущает человек, с поправкой на солнечный нагрев. Характеристика знойности погоды. Зависит от высоты солнца над горизонтом, облачности и скорости ветра. Ночью, в пасмурную погоду, а также при ветре 12 м/с и более поправка равна нулю.
P - Атмосферное давление - приведенное к уровню моря атмосферное давление.
Po - Атмосферное давление - измеренное на уровне метеостанции атмосферное давление.
Tmin - Минимальная температура - минимум температуры воздуха на высоте 2 м над землей.
Tmax - Максимальная температура - максимум температуры воздуха на высоте 2 м над землей.
R - Количество осадков - Количество выпавших осадков за период времени, мм. При наведении курсора мыши на число - период времени, за который выпало указанное количество осадков.
R24 - Количество осадков - Количество выпавших осадков за 24 часа, мм.
S - Снежный покров - Высота снежного покрова, см. При наведении курсора мыши на число - состояние снежного покрова и степень покрытия местности в баллах.